| time (UTC) | temp F | wind direction | speed knots | gust knots | rain 1hr in | rain 24hr in | rain mn in | humidity % | barometer mb |
| 20260507064435 | 36 | 277 | 0.0 | 0.0 | 0.05 | 0.09 | 0.09 | 95 | 1010.3 |
| 20260507063932 | 37 | 280 | 0.0 | 0.0 | 0.05 | 0.09 | 0.09 | 95 | 1010.3 |
| 20260507063429 | 37 | 287 | 0.0 | 0.0 | 0.00 | 0.08 | 0.08 | 95 | 1010.2 |
| 20260507062926 | 37 | 246 | 0.0 | 0.9 | 0.00 | 0.08 | 0.08 | 94 | 1010.0 |
| 20260507062423 | 37 | 313 | 0.9 | 0.9 | 0.00 | 0.08 | 0.08 | 95 | 1010.1 |
| 20260507061921 | 37 | 344 | 0.9 | 1.7 | 0.07 | 0.08 | 0.08 | 95 | 1010.1 |
| 20260507061418 | 37 | 307 | 0.0 | 0.9 | 0.07 | 0.08 | 0.08 | 95 | 1010.4 |
| 20260507060917 | 37 | 297 | 0.9 | 0.9 | 0.00 | 0.07 | 0.07 | 93 | 1009.9 |
| 20260507060413 | 37 | 310 | 0.0 | 0.0 | 0.00 | 0.07 | 0.07 | 93 | 1010.0 |
| 20260507055910 | 37 | 294 | 0.0 | 0.0 | 0.00 | 0.07 | 0.07 | 93 | 1010.0 |
| 20260507055405 | 37 | 308 | 1.7 | 1.7 | 0.00 | 0.07 | 0.07 | 93 | 1009.8 |
| 20260507054902 | 37 | 283 | 0.0 | 0.0 | 0.00 | 0.07 | 0.07 | 93 | 1009.7 |
| 20260507054358 | 37 | 289 | 0.0 | 0.0 | 0.00 | 0.07 | 0.07 | 92 | 1009.9 |
| 20260507053855 | 37 | 281 | 0.0 | 0.0 | 0.00 | 0.07 | 0.07 | 91 | 1009.9 |
| 20260507053353 | 37 | 262 | 0.0 | 0.0 | 0.05 | 0.07 | 0.07 | 92 | 1009.8 |
| 20260507052852 | 37 | 282 | 0.9 | 0.9 | 0.05 | 0.07 | 0.07 | 94 | 1009.8 |
| 20260507052348 | 37 | 300 | 0.0 | 0.9 | 0.00 | 0.06 | 0.06 | 95 | 1009.7 |
| 20260507051845 | 37 | 316 | 1.7 | 1.7 | 0.00 | 0.06 | 0.06 | 94 | 1009.7 |
| 20260507051343 | 38 | 226 | 0.9 | 1.7 | 0.00 | 0.06 | 0.06 | 92 | 1009.5 |
| 20260507050834 | 38 | 216 | 1.7 | 1.7 | 0.07 | 0.06 | 0.06 | 91 | 1009.7 |
| 20260507050330 | 38 | 249 | 0.0 | 0.0 | 0.07 | 0.06 | 0.06 | 91 | 1009.5 |
| 20260507045827 | 37 | 283 | 0.0 | 0.0 | 0.07 | 0.06 | 0.06 | 91 | 1009.7 |
| 20260507045324 | 37 | 284 | 0.0 | 0.0 | 0.00 | 0.05 | 0.05 | 91 | 1009.7 |
| 20260507044821 | 37 | 283 | 0.0 | 0.9 | 0.00 | 0.05 | 0.05 | 91 | 1009.7 |
| 20260507044318 | 37 | 288 | 0.0 | 0.9 | 0.07 | 0.05 | 0.05 | 94 | 1010.0 |
| 20260507043814 | 37 | 292 | 0.0 | 0.0 | 0.07 | 0.05 | 0.05 | 94 | 1009.7 |
| 20260507043310 | 36 | 282 | 0.0 | 0.0 | 0.05 | 0.04 | 0.04 | 94 | 1009.6 |
| 20260507042807 | 36 | 307 | 2.6 | 2.6 | 0.12 | 0.04 | 0.04 | 94 | 1009.8 |
| 20260507042306 | 36 | 324 | 2.6 | 2.6 | 0.07 | 0.03 | 0.03 | 94 | 1009.7 |
| 20260507041800 | 36 | 343 | 2.6 | 2.6 | 0.05 | 0.02 | 0.02 | 94 | 1009.8 |
| 20260507041256 | 37 | 352 | 2.6 | 2.6 | 0.05 | 0.02 | 0.02 | 93 | 1009.6 |
| 20260507040753 | 37 | 42 | 2.6 | 5.2 | 0.07 | 0.01 | 0.01 | 93 | 1009.7 |
| 20260507040249 | 37 | 11 | 2.6 | 5.2 | 0.07 | 0.01 | 0.01 | 92 | 1009.6 |
| 20260507035745 | 38 | 32 | 2.6 | 2.6 | 0.00 | 0.00 | 0.00 | 90 | 1009.5 |
| 20260507035241 | 39 | 49 | 4.3 | 6.1 | 0.00 | 0.00 | 0.00 | 87 | 1009.5 |
| 20260507034739 | 40 | 328 | 1.7 | 2.6 | 0.00 | 0.00 | 0.00 | 84 | 1009.3 |
| 20260507034235 | 41 | 161 | 4.3 | 5.2 | 0.00 | 0.00 | 0.00 | 85 | 1009.1 |
| 20260507033734 | 42 | 223 | 1.7 | 1.7 | 0.00 | 0.00 | 0.00 | 83 | 1009.0 |
| 20260507033231 | 42 | 304 | 0.9 | 1.7 | 0.00 | 0.00 | 0.00 | 78 | 1008.9 |
| 20260507032728 | 42 | 319 | 0.9 | 1.7 | 0.00 | 0.00 | 0.00 | 78 | 1008.7 |
| 20260507032224 | 41 | 336 | 2.6 | 4.3 | 0.00 | 0.00 | 0.00 | 77 | 1009.0 |
| 20260507031721 | 41 | 292 | 0.0 | 0.0 | 0.00 | 0.00 | 0.00 | 79 | 1008.9 |
| 20260507031217 | 41 | 302 | 0.0 | 0.0 | 0.00 | 0.00 | 0.00 | 81 | 1008.8 |
| 20260507030714 | 41 | 178 | 1.7 | 2.6 | 0.00 | 0.00 | 0.00 | 83 | 1008.7 |
| 20260507030212 | 41 | 252 | 0.9 | 0.9 | 0.00 | 0.00 | 0.00 | 83 | 1008.6 |
| 20260507025709 | 41 | 269 | 0.0 | 0.0 | 0.00 | 0.00 | 0.00 | 82 | 1008.9 |
| 20260507025206 | 41 | 186 | 1.7 | 1.7 | 0.00 | 0.00 | 0.00 | 82 | 1008.7 |
| 20260507024704 | 42 | 199 | 1.7 | 1.7 | 0.00 | 0.00 | 0.00 | 81 | 1008.7 |
| 20260507024201 | 42 | 248 | 0.9 | 0.9 | 0.00 | 0.00 | 0.00 | 76 | 1008.6 |
| 20260507023656 | 42 | 262 | 0.0 | 0.0 | 0.00 | 0.00 | 0.00 | 78 | 1008.7 |
| 20260507023154 | 42 | 176 | 1.7 | 1.7 | 0.00 | 0.00 | 0.00 | 79 | 1008.8 |
| 20260507022651 | 42 | 287 | 0.0 | 0.0 | 0.00 | 0.00 | 0.00 | 81 | 1008.6 |
| 20260507022146 | 42 | 216 | 0.9 | 1.7 | 0.00 | 0.00 | 0.00 | 79 | 1008.6 |
| 20260507021643 | 43 | 238 | 0.9 | 0.9 | 0.00 | 0.00 | 0.00 | 78 | 1008.4 |
| 20260507021138 | 43 | 287 | 1.7 | 1.7 | 0.00 | 0.00 | 0.00 | 77 | 1008.5 |
| 20260507020637 | 43 | 286 | 0.9 | 0.9 | 0.00 | 0.00 | 0.00 | 76 | 1008.4 |
| 20260507020132 | 43 | 250 | 0.9 | 0.9 | 0.00 | 0.00 | 0.00 | 76 | 1008.5 |
| 20260507015631 | 43 | 219 | 0.9 | 0.9 | 0.00 | 0.00 | 0.00 | 78 | 1008.4 |
| 20260507015128 | 43 | 353 | 0.9 | 1.7 | 0.00 | 0.00 | 0.00 | 76 | 1008.3 |
| 20260507014625 | 43 | 332 | 0.9 | 1.7 | 0.00 | 0.00 | 0.00 | 74 | 1008.1 |
| 20260507014121 | 43 | 306 | 0.9 | 0.9 | 0.00 | 0.00 | 0.00 | 76 | 1008.3 |
| 20260507013618 | 43 | 283 | 0.0 | 0.0 | 0.00 | 0.00 | 0.00 | 79 | 1008.1 |
| 20260507013115 | 42 | 323 | 0.9 | 1.7 | 0.00 | 0.00 | 0.00 | 79 | 1008.4 |
| 20260507012612 | 42 | 277 | 0.0 | 0.0 | 0.00 | 0.00 | 0.00 | 81 | 1008.4 |
| 20260507012107 | 42 | 291 | 0.9 | 1.7 | 0.00 | 0.00 | 0.00 | 83 | 1008.3 |
| 20260507011606 | 42 | 304 | 0.9 | 0.9 | 0.00 | 0.00 | 0.00 | 82 | 1008.3 |
| 20260507011102 | 41 | 278 | 0.0 | 0.0 | 0.00 | 0.00 | 0.00 | 81 | 1008.3 |
| 20260507010556 | 42 | 277 | 0.9 | 0.9 | 0.00 | 0.00 | 0.00 | 81 | 1008.3 |
| 20260507010052 | 41 | 291 | 0.9 | 0.9 | 0.00 | 0.00 | 0.00 | 81 | 1008.5 |
| 20260507005550 | 41 | 287 | 0.0 | 0.0 | 0.00 | 0.00 | 0.00 | 83 | 1008.4 |
| 20260507005046 | 41 | 41 | 1.7 | 1.7 | 0.00 | 0.00 | 0.00 | 83 | 1008.4 |
| 20260507004543 | 41 | 222 | 1.7 | 1.7 | 0.00 | 0.00 | 0.00 | 83 | 1008.0 |
| 20260507004041 | 41 | 216 | 2.6 | 2.6 | 0.00 | 0.00 | 0.00 | 83 | 1008.1 |
| 20260507003536 | 41 | 193 | 0.9 | 1.7 | 0.00 | 0.00 | 0.00 | 82 | 1008.1 |
| 20260507003032 | 41 | 186 | 0.9 | 1.7 | 0.00 | 0.00 | 0.00 | 84 | 1008.4 |
| 20260507002528 | 41 | 250 | 1.7 | 1.7 | 0.00 | 0.00 | 0.00 | 83 | 1008.1 |
| 20260507002019 | 41 | 330 | 0.9 | 0.9 | 0.00 | 0.00 | 0.00 | 83 | 1008.0 |
| 20260507001515 | 41 | 299 | 0.0 | 0.9 | 0.00 | 0.00 | 0.00 | 84 | 1008.1 |
| 20260507001013 | 41 | 139 | 3.5 | 4.3 | 0.00 | 0.00 | 0.00 | 84 | 1008.1 |
| 20260507000509 | 41 | 190 | 1.7 | 1.7 | 0.00 | 0.00 | 0.00 | 85 | 1008.3 |
| 20260507000005 | 41 | 143 | 2.6 | 4.3 | 0.00 | 0.00 | 0.00 | 84 | 1007.9 |
| 20260506235502 | 41 | 162 | 2.6 | 2.6 | 0.00 | 0.00 | 0.00 | 83 | 1007.9 |
| 20260506234958 | 42 | 164 | 5.2 | 6.1 | 0.00 | 0.00 | 0.00 | 82 | 1007.8 |
| 20260506234455 | 42 | 88 | 2.6 | 4.3 | 0.00 | 0.00 | 0.00 | 79 | 1007.8 |
| 20260506233953 | 42 | 21 | 1.7 | 1.7 | 0.00 | 0.00 | 0.00 | 80 | 1007.6 |
| 20260506233449 | 43 | 33 | 1.7 | 1.7 | 0.00 | 0.00 | 0.00 | 78 | 1007.7 |
| 20260506232945 | 42 | 95 | 2.6 | 2.6 | 0.00 | 0.00 | 0.00 | 79 | 1007.7 |
| 20260506232442 | 42 | 322 | 2.6 | 2.6 | 0.00 | 0.00 | 0.00 | 77 | 1007.8 |
| 20260506231938 | 42 | 25 | 2.6 | 2.6 | 0.00 | 0.00 | 0.00 | 76 | 1007.8 |
| 20260506231436 | 43 | 147 | 2.6 | 2.6 | 0.00 | 0.00 | 0.00 | 73 | 1007.8 |
| 20260506230933 | 42 | 174 | 3.5 | 4.3 | 0.00 | 0.00 | 0.00 | 74 | 1007.7 |
| 20260506230429 | 42 | 274 | 2.6 | 4.3 | 0.00 | 0.00 | 0.00 | 75 | 1007.7 |
| 20260506225925 | 42 | 184 | 3.5 | 5.2 | 0.00 | 0.00 | 0.00 | 75 | 1007.5 |
| 20260506225423 | 43 | 134 | 3.5 | 4.3 | 0.00 | 0.00 | 0.00 | 72 | 1007.7 |
| 20260506224920 | 43 | 97 | 2.6 | 4.3 | 0.00 | 0.00 | 0.00 | 73 | 1007.6 |
| 20260506224417 | 42 | 156 | 2.6 | 2.6 | 0.00 | 0.00 | 0.00 | 72 | 1007.6 |
| 20260506223913 | 43 | 155 | 3.5 | 4.3 | 0.00 | 0.00 | 0.00 | 73 | 1007.4 |
| 20260506223409 | 43 | 232 | 0.9 | 1.7 | 0.00 | 0.00 | 0.00 | 74 | 1007.6 |
| 20260506222906 | 42 | 181 | 2.6 | 2.6 | 0.00 | 0.00 | 0.00 | 74 | 1007.3 |
| 20260506222402 | 42 | 192 | 0.9 | 0.9 | 0.00 | 0.00 | 0.00 | 75 | 1007.4 |
| 20260506221900 | 42 | 264 | 0.9 | 0.9 | 0.00 | 0.00 | 0.00 | 75 | 1007.4 |
| 20260506221356 | 43 | 140 | 1.7 | 2.6 | 0.00 | 0.00 | 0.00 | 73 | 1007.4 |
| 20260506220854 | 45 | 293 | 2.6 | 2.6 | 0.00 | 0.00 | 0.00 | 68 | 1007.2 |
| 20260506220350 | 45 | 210 | 2.6 | 4.3 | 0.00 | 0.00 | 0.00 | 61 | 1007.4 |
| 20260506215846 | 45 | 356 | 3.5 | 5.2 | 0.00 | 0.00 | 0.00 | 63 | 1007.0 |
| 20260506215342 | 44 | 328 | 1.7 | 1.7 | 0.00 | 0.00 | 0.00 | 70 | 1007.2 |
| 20260506214838 | 43 | 325 | 0.9 | 0.9 | 0.00 | 0.00 | 0.00 | 75 | 1007.4 |
| 20260506214335 | 44 | 167 | 4.3 | 5.2 | 0.00 | 0.00 | 0.00 | 74 | 1007.0 |
| 20260506213834 | 44 | 257 | 0.9 | 0.9 | 0.00 | 0.00 | 0.00 | 73 | 1007.0 |
| 20260506213330 | 44 | 179 | 2.6 | 4.3 | 0.00 | 0.00 | 0.00 | 73 | 1007.1 |
| 20260506212828 | 44 | 190 | 1.7 | 1.7 | 0.00 | 0.00 | 0.00 | 74 | 1007.0 |
| 20260506212323 | 44 | 128 | 2.6 | 2.6 | 0.00 | 0.00 | 0.00 | 73 | 1007.1 |
| 20260506211819 | 45 | 171 | 2.6 | 2.6 | 0.00 | 0.00 | 0.00 | 73 | 1007.0 |
| 20260506211315 | 44 | 194 | 4.3 | 5.2 | 0.00 | 0.00 | 0.00 | 72 | 1007.0 |
| 20260506210813 | 44 | 175 | 2.6 | 4.3 | 0.00 | 0.00 | 0.00 | 72 | 1006.8 |
| 20260506210309 | 43 | 33 | 2.6 | 2.6 | 0.00 | 0.00 | 0.00 | 75 | 1006.8 |
| 20260506205806 | 43 | 115 | 2.6 | 2.6 | 0.00 | 0.00 | 0.00 | 76 | 1007.0 |
| 20260506205305 | 44 | 146 | 2.6 | 4.3 | 0.00 | 0.00 | 0.00 | 75 | 1006.6 |
| 20260506204758 | 44 | 150 | 5.2 | 6.1 | 0.00 | 0.00 | 0.00 | 74 | 1006.7 |
| 20260506204257 | 44 | 242 | 0.9 | 0.9 | 0.00 | 0.00 | 0.00 | 73 | 1006.7 |
| 20260506203754 | 44 | 259 | 0.9 | 0.9 | 0.00 | 0.00 | 0.00 | 73 | 1006.5 |
| 20260506203251 | 44 | 160 | 3.5 | 5.2 | 0.00 | 0.00 | 0.00 | 73 | 1006.7 |
| 20260506202748 | 43 | 77 | 1.7 | 2.6 | 0.00 | 0.00 | 0.00 | 74 | 1006.5 |
| 20260506202245 | 44 | 239 | 1.7 | 2.6 | 0.00 | 0.00 | 0.00 | 75 | 1006.6 |
| 20260506201741 | 44 | 52 | 2.6 | 2.6 | 0.00 | 0.00 | 0.00 | 75 | 1006.4 |
| 20260506201238 | 43 | 36 | 2.6 | 2.6 | 0.00 | 0.00 | 0.00 | 72 | 1006.3 |
| 20260506200735 | 43 | 268 | 2.6 | 2.6 | 0.00 | 0.00 | 0.00 | 76 | 1006.4 |
| 20260506200232 | 43 | 178 | 2.6 | 4.3 | 0.00 | 0.00 | 0.00 | 78 | 1006.4 |
| 20260506195728 | 43 | 269 | 2.6 | 4.3 | 0.00 | 0.00 | 0.00 | 77 | 1006.4 |
| 20260506195225 | 43 | 242 | 1.7 | 1.7 | 0.00 | 0.00 | 0.00 | 77 | 1006.4 |
| 20260506194722 | 43 | 187 | 4.3 | 5.2 | 0.00 | 0.00 | 0.00 | 76 | 1006.5 |
| 20260506194218 | 42 | 202 | 1.7 | 2.6 | 0.00 | 0.00 | 0.00 | 78 | 1006.4 |
| 20260506193716 | 43 | 84 | 1.7 | 1.7 | 0.00 | 0.00 | 0.00 | 77 | 1006.3 |
| 20260506193213 | 43 | 199 | 1.7 | 2.6 | 0.00 | 0.00 | 0.00 | 77 | 1006.1 |
| 20260506192709 | 43 | 268 | 0.9 | 0.9 | 0.00 | 0.00 | 0.00 | 73 | 1006.2 |
| 20260506192206 | 43 | 277 | 0.9 | 0.9 | 0.00 | 0.00 | 0.00 | 75 | 1006.4 |
| 20260506191657 | 41 | 218 | 1.7 | 1.7 | 0.00 | 0.00 | 0.00 | 77 | 1006.2 |
| 20260506191153 | 41 | 224 | 2.6 | 2.6 | 0.00 | 0.00 | 0.00 | 77 | 1006.4 |
| 20260506190651 | 41 | 164 | 1.7 | 1.7 | 0.00 | 0.00 | 0.00 | 78 | 1006.4 |
| 20260506190147 | 41 | 176 | 1.7 | 2.6 | 0.00 | 0.00 | 0.00 | 78 | 1006.5 |
| 20260506185644 | 41 | 176 | 5.2 | 6.1 | 0.00 | 0.00 | 0.00 | 78 | 1006.0 |
| 20260506185140 | 41 | 192 | 2.6 | 2.6 | 0.00 | 0.00 | 0.00 | 79 | 1006.2 |
| 20260506184638 | 41 | 124 | 1.7 | 1.7 | 0.00 | 0.00 | 0.00 | 80 | 1006.1 |
| 20260506184135 | 41 | 207 | 1.7 | 1.7 | 0.00 | 0.00 | 0.00 | 79 | 1006.2 |
| 20260506183632 | 40 | 213 | 1.7 | 1.7 | 0.00 | 0.00 | 0.00 | 80 | 1005.9 |
| 20260506183128 | 40 | 63 | 2.6 | 2.6 | 0.00 | 0.00 | 0.00 | 79 | 1006.1 |
| 20260506182625 | 40 | 214 | 1.7 | 1.7 | 0.00 | 0.00 | 0.00 | 80 | 1006.3 |
| 20260506182122 | 40 | 214 | 0.9 | 1.7 | 0.00 | 0.00 | 0.00 | 81 | 1006.1 |
| 20260506181620 | 40 | 235 | 0.9 | 0.9 | 0.00 | 0.00 | 0.00 | 81 | 1006.1 |
| 20260506181117 | 40 | 240 | 1.7 | 1.7 | 0.00 | 0.00 | 0.00 | 81 | 1006.0 |
| 20260506180614 | 39 | 218 | 0.9 | 1.7 | 0.00 | 0.00 | 0.00 | 81 | 1005.9 |
| 20260506180110 | 39 | 190 | 1.7 | 1.7 | 0.00 | 0.00 | 0.00 | 81 | 1005.9 |
| 20260506175607 | 39 | 264 | 0.0 | 0.0 | 0.00 | 0.00 | 0.00 | 81 | 1005.9 |
| 20260506175103 | 39 | 210 | 1.7 | 2.6 | 0.00 | 0.00 | 0.00 | 82 | 1005.9 |
| 20260506174602 | 39 | 263 | 0.9 | 0.9 | 0.00 | 0.00 | 0.00 | 81 | 1005.8 |
| 20260506174057 | 39 | 277 | 0.0 | 0.0 | 0.00 | 0.00 | 0.00 | 81 | 1005.8 |
| 20260506173555 | 39 | 230 | 0.9 | 0.9 | 0.00 | 0.00 | 0.00 | 81 | 1006.1 |
| 20260506173052 | 39 | 268 | 0.0 | 0.0 | 0.00 | 0.00 | 0.00 | 82 | 1005.9 |
| 20260506172549 | 39 | 186 | 2.6 | 2.6 | 0.00 | 0.00 | 0.00 | 81 | 1005.8 |
| 20260506172045 | 39 | 240 | 0.9 | 0.9 | 0.00 | 0.00 | 0.00 | 80 | 1005.8 |
| 20260506171543 | 39 | 254 | 0.0 | 0.9 | 0.00 | 0.00 | 0.00 | 81 | 1005.7 |
| 20260506171040 | 39 | 195 | 1.7 | 1.7 | 0.00 | 0.00 | 0.00 | 81 | 1005.6 |
| 20260506170537 | 39 | 48 | 1.7 | 1.7 | 0.00 | 0.00 | 0.00 | 81 | 1005.8 |
| 20260506170030 | 39 | 277 | 0.0 | 0.9 | 0.00 | 0.00 | 0.00 | 81 | 1005.6 |
| 20260506165528 | 38 | 292 | 0.0 | 0.0 | 0.00 | 0.00 | 0.00 | 81 | 1005.6 |
| 20260506165024 | 38 | 259 | 0.9 | 0.9 | 0.00 | 0.00 | 0.00 | 81 | 1005.8 |
| 20260506164520 | 38 | 284 | 0.0 | 0.0 | 0.00 | 0.00 | 0.00 | 81 | 1005.5 |
| 20260506164018 | 38 | 289 | 0.0 | 0.0 | 0.00 | 0.00 | 0.00 | 81 | 1005.5 |
| 20260506163514 | 38 | 304 | 0.9 | 0.9 | 0.00 | 0.00 | 0.00 | 82 | 1005.3 |
| 20260506163010 | 38 | 303 | 0.0 | 0.9 | 0.00 | 0.00 | 0.00 | 82 | 1005.4 |
| 20260506162506 | 38 | 331 | 1.7 | 1.7 | 0.00 | 0.00 | 0.00 | 82 | 1005.5 |
| 20260506162003 | 37 | 302 | 0.0 | 0.9 | 0.00 | 0.00 | 0.00 | 83 | 1005.3 |
| 20260506161500 | 37 | 285 | 0.0 | 0.0 | 0.00 | 0.00 | 0.00 | 84 | 1005.3 |
| 20260506160952 | 37 | 289 | 0.0 | 0.0 | 0.00 | 0.00 | 0.00 | 83 | 1005.2 |
| 20260506160450 | 37 | 307 | 0.9 | 0.9 | 0.00 | 0.00 | 0.00 | 83 | 1005.2 |
| 20260506155947 | 37 | 298 | 0.0 | 0.9 | 0.00 | 0.00 | 0.00 | 83 | 1005.2 |
| 20260506155444 | 37 | 302 | 0.0 | 0.0 | 0.00 | 0.00 | 0.00 | 83 | 1005.0 |
| 20260506153616 | 37 | 306 | 0.0 | 0.9 | 0.00 | 0.00 | 0.00 | 83 | 1005.2 |
| 20260506153114 | 37 | 330 | 1.7 | 1.7 | 0.00 | 0.00 | 0.00 | 83 | 1004.9 |
| 20260506152611 | 37 | 306 | 0.9 | 0.9 | 0.00 | 0.00 | 0.00 | 83 | 1005.2 |
| 20260506152109 | 37 | 326 | 1.7 | 1.7 | 0.00 | 0.00 | 0.00 | 83 | 1004.8 |
| 20260506151607 | 37 | 298 | 0.9 | 0.9 | 0.00 | 0.00 | 0.00 | 82 | 1004.8 |
| 20260506151103 | 37 | 288 | 0.0 | 0.0 | 0.00 | 0.00 | 0.00 | 81 | 1004.9 |
| 20260506150600 | 37 | 107 | 1.7 | 2.6 | 0.00 | 0.00 | 0.00 | 80 | 1005.0 |
| 20260506150057 | 37 | 243 | 0.0 | 0.9 | 0.00 | 0.00 | 0.00 | 79 | 1004.8 |
| 20260506145554 | 37 | 271 | 0.0 | 0.0 | 0.00 | 0.00 | 0.00 | 79 | 1004.8 |
| 20260506145051 | 37 | 282 | 0.0 | 0.0 | 0.00 | 0.00 | 0.00 | 79 | 1004.7 |
| 20260506144548 | 37 | 274 | 0.0 | 0.0 | 0.00 | 0.00 | 0.00 | 79 | 1004.8 |
| 20260506144045 | 37 | 298 | 0.0 | 0.0 | 0.00 | 0.00 | 0.00 | 79 | 1004.7 |
| 20260506143543 | 37 | 285 | 0.0 | 0.0 | 0.00 | 0.00 | 0.00 | 79 | 1004.6 |
| 20260506143041 | 37 | 270 | 0.0 | 0.0 | 0.00 | 0.00 | 0.00 | 79 | 1004.7 |
| 20260506142538 | 37 | 277 | 0.0 | 0.0 | 0.00 | 0.00 | 0.00 | 79 | 1004.7 |
| 20260506142037 | 37 | 285 | 0.0 | 0.0 | 0.00 | 0.00 | 0.00 | 78 | 1004.7 |
| 20260506141534 | 37 | 308 | 0.9 | 0.9 | 0.00 | 0.00 | 0.00 | 78 | 1004.6 |
| 20260506141032 | 37 | 294 | 0.0 | 0.0 | 0.00 | 0.00 | 0.00 | 77 | 1004.6 |
| 20260506140529 | 37 | 297 | 0.0 | 0.0 | 0.00 | 0.00 | 0.00 | 77 | 1004.6 |
| 20260506140026 | 37 | 313 | 0.9 | 0.9 | 0.00 | 0.00 | 0.00 | 76 | 1004.6 |
| 20260506135523 | 37 | 287 | 0.0 | 0.0 | 0.00 | 0.00 | 0.00 | 76 | 1004.5 |
| 20260506135019 | 37 | 292 | 0.9 | 0.9 | 0.00 | 0.00 | 0.00 | 76 | 1004.7 |
| 20260506134515 | 37 | 290 | 0.0 | 0.0 | 0.00 | 0.00 | 0.00 | 76 | 1004.6 |
| 20260506134012 | 37 | 269 | 0.0 | 0.0 | 0.00 | 0.00 | 0.00 | 76 | 1004.5 |
| 20260506133509 | 37 | 282 | 0.0 | 0.9 | 0.00 | 0.00 | 0.00 | 76 | 1004.6 |
| 20260506133006 | 37 | 284 | 0.0 | 0.0 | 0.00 | 0.00 | 0.00 | 77 | 1004.6 |
| 20260506132503 | 38 | 320 | 0.9 | 0.9 | 0.00 | 0.00 | 0.00 | 77 | 1004.7 |
| 20260506132000 | 39 | 223 | 0.0 | 0.0 | 0.00 | 0.00 | 0.00 | 73 | 1004.3 |
| 20260506131457 | 38 | 273 | 0.0 | 0.0 | 0.00 | 0.00 | 0.00 | 73 | 1004.3 |
| 20260506130954 | 39 | 266 | 0.0 | 0.0 | 0.00 | 0.00 | 0.00 | 74 | 1004.5 |
| 20260506130450 | 39 | 284 | 0.0 | 0.0 | 0.00 | 0.00 | 0.00 | 72 | 1004.4 |
| 20260506125948 | 38 | 288 | 0.0 | 0.0 | 0.00 | 0.00 | 0.00 | 73 | 1004.4 |
| 20260506125446 | 38 | 282 | 0.0 | 0.0 | 0.00 | 0.00 | 0.00 | 74 | 1004.6 |
| 20260506124944 | 39 | 287 | 0.0 | 0.0 | 0.00 | 0.00 | 0.00 | 73 | 1004.4 |
| 20260506124441 | 39 | 262 | 0.0 | 0.0 | 0.00 | 0.00 | 0.00 | 72 | 1004.6 |
| 20260506123939 | 39 | 291 | 1.7 | 2.6 | 0.00 | 0.00 | 0.00 | 71 | 1004.2 |
| 20260506123437 | 39 | 329 | 0.9 | 0.9 | 0.00 | 0.00 | 0.00 | 70 | 1004.4 |
| 20260506122934 | 40 | 326 | 0.9 | 0.9 | 0.00 | 0.00 | 0.00 | 70 | 1004.4 |
| 20260506122431 | 41 | 331 | 8.7 | 8.7 | 0.00 | 0.00 | 0.00 | 68 | 1004.3 |
| 20260506121929 | 40 | 341 | 1.7 | 4.3 | 0.00 | 0.00 | 0.00 | 68 | 1004.4 |
| 20260506121426 | 40 | 328 | 2.6 | 4.3 | 0.00 | 0.00 | 0.00 | 68 | 1004.2 |
| 20260506120923 | 40 | 0 | 4.3 | 5.2 | 0.00 | 0.00 | 0.00 | 68 | 1004.2 |
| 20260506120420 | 40 | 273 | 0.9 | 1.7 | 0.00 | 0.00 | 0.00 | 69 | 1004.3 |
| 20260506115917 | 40 | 300 | 0.9 | 1.7 | 0.00 | 0.00 | 0.00 | 70 | 1004.2 |
| 20260506115415 | 40 | 291 | 0.0 | 0.9 | 0.00 | 0.00 | 0.00 | 69 | 1004.3 |
| 20260506114914 | 40 | 274 | 0.0 | 0.0 | 0.00 | 0.00 | 0.00 | 69 | 1004.3 |
| 20260506114411 | 40 | 319 | 0.0 | 0.9 | 0.00 | 0.00 | 0.00 | 68 | 1004.1 |
| 20260506113910 | 40 | 305 | 0.9 | 0.9 | 0.00 | 0.00 | 0.00 | 68 | 1004.2 |
| 20260506113407 | 40 | 157 | 1.7 | 2.6 | 0.00 | 0.00 | 0.00 | 69 | 1004.3 |
| 20260506112903 | 39 | 308 | 2.6 | 2.6 | 0.00 | 0.00 | 0.00 | 70 | 1004.2 |
| 20260506112401 | 39 | 235 | 0.0 | 0.9 | 0.00 | 0.00 | 0.00 | 71 | 1004.1 |
| 20260506111858 | 39 | 276 | 0.0 | 0.0 | 0.00 | 0.00 | 0.00 | 70 | 1004.3 |
| 20260506111356 | 40 | 257 | 0.0 | 0.0 | 0.00 | 0.00 | 0.00 | 70 | 1004.0 |
| 20260506110853 | 40 | 5 | 2.6 | 2.6 | 0.00 | 0.00 | 0.00 | 68 | 1004.4 |
| 20260506110350 | 40 | 355 | 0.0 | 0.9 | 0.00 | 0.00 | 0.00 | 68 | 1004.2 |
| 20260506105847 | 40 | 306 | 1.7 | 2.6 | 0.00 | 0.00 | 0.00 | 67 | 1004.1 |
| 20260506105343 | 40 | 292 | 0.9 | 0.9 | 0.00 | 0.00 | 0.00 | 69 | 1004.3 |
| 20260506104841 | 40 | 210 | 0.0 | 0.9 | 0.00 | 0.00 | 0.00 | 68 | 1004.0 |
| 20260506104338 | 39 | 292 | 1.7 | 1.7 | 0.00 | 0.00 | 0.00 | 69 | 1004.1 |
| 20260506103836 | 40 | 280 | 0.0 | 0.0 | 0.00 | 0.00 | 0.00 | 69 | 1004.2 |
| 20260506103333 | 40 | 359 | 0.9 | 1.7 | 0.00 | 0.00 | 0.00 | 69 | 1004.0 |
| 20260506102831 | 39 | 281 | 1.7 | 2.6 | 0.00 | 0.00 | 0.00 | 70 | 1003.9 |
| 20260506102328 | 39 | 270 | 0.0 | 0.0 | 0.00 | 0.00 | 0.00 | 71 | 1004.0 |
| 20260506101825 | 39 | 248 | 0.9 | 0.9 | 0.00 | 0.00 | 0.00 | 72 | 1004.1 |
| 20260506101321 | 38 | 235 | 0.9 | 0.9 | 0.00 | 0.00 | 0.00 | 73 | 1004.0 |
| 20260506100819 | 38 | 242 | 1.7 | 1.7 | 0.00 | 0.00 | 0.00 | 73 | 1003.8 |
| 20260506100318 | 39 | 227 | 0.9 | 0.9 | 0.00 | 0.00 | 0.00 | 72 | 1003.8 |
| 20260506095816 | 39 | 249 | 0.9 | 0.9 | 0.00 | 0.00 | 0.00 | 71 | 1004.0 |
| 20260506095312 | 39 | 282 | 0.0 | 0.0 | 0.00 | 0.00 | 0.00 | 70 | 1003.8 |
| 20260506094809 | 40 | 246 | 0.9 | 1.7 | 0.00 | 0.00 | 0.00 | 69 | 1003.9 |
| 20260506094308 | 40 | 295 | 0.0 | 0.0 | 0.00 | 0.00 | 0.00 | 67 | 1003.7 |
| 20260506093806 | 40 | 285 | 0.0 | 0.0 | 0.00 | 0.00 | 0.00 | 67 | 1003.7 |
| 20260506093302 | 40 | 309 | 0.9 | 0.9 | 0.00 | 0.00 | 0.00 | 67 | 1003.7 |
| 20260506092801 | 41 | 266 | 0.0 | 0.9 | 0.00 | 0.00 | 0.00 | 65 | 1003.6 |
| 20260506092258 | 41 | 343 | 4.3 | 6.1 | 0.00 | 0.00 | 0.00 | 64 | 1003.4 |
| 20260506091755 | 40 | 346 | 2.6 | 2.6 | 0.00 | 0.00 | 0.00 | 66 | 1003.5 |
| 20260506091252 | 40 | 343 | 1.7 | 1.7 | 0.00 | 0.00 | 0.00 | 66 | 1003.4 |
| 20260506090750 | 40 | 323 | 4.3 | 5.2 | 0.00 | 0.00 | 0.00 | 67 | 1003.4 |
| 20260506090247 | 40 | 340 | 7.0 | 8.7 | 0.00 | 0.00 | 0.00 | 66 | 1003.5 |
| 20260506085744 | 40 | 1 | 4.3 | 6.1 | 0.00 | 0.00 | 0.00 | 67 | 1003.6 |
| 20260506085240 | 40 | 329 | 3.5 | 5.2 | 0.00 | 0.00 | 0.00 | 66 | 1003.5 |
| 20260506084736 | 41 | 324 | 8.7 | 9.6 | 0.00 | 0.00 | 0.00 | 65 | 1003.4 |
| 20260506084232 | 41 | 333 | 7.0 | 9.6 | 0.00 | 0.00 | 0.00 | 65 | 1003.3 |
| 20260506083730 | 41 | 316 | 4.3 | 7.0 | 0.00 | 0.00 | 0.00 | 65 | 1003.2 |
| 20260506083222 | 41 | 329 | 6.1 | 7.0 | 0.00 | 0.00 | 0.00 | 65 | 1003.4 |
| 20260506082719 | 41 | 321 | 6.1 | 7.8 | 0.00 | 0.00 | 0.00 | 64 | 1003.3 |
| 20260506082215 | 41 | 335 | 7.0 | 9.6 | 0.00 | 0.00 | 0.00 | 63 | 1003.3 |
| 20260506081713 | 41 | 342 | 9.6 | 13.0 | 0.00 | 0.00 | 0.00 | 63 | 1003.2 |
| 20260506081210 | 42 | 325 | 7.0 | 7.8 | 0.00 | 0.00 | 0.00 | 61 | 1003.3 |
| 20260506080708 | 41 | 323 | 4.3 | 6.1 | 0.00 | 0.00 | 0.00 | 62 | 1003.2 |
| 20260506080204 | 41 | 296 | 9.6 | 11.3 | 0.00 | 0.00 | 0.00 | 61 | 1003.0 |
| 20260506073148 | 41 | 326 | 7.8 | 9.6 | 0.00 | 0.00 | 0.00 | 65 | 1003.0 |
| 20260506072644 | 41 | 325 | 7.0 | 8.7 | 0.00 | 0.00 | 0.00 | 65 | 1002.9 |
| 20260506072143 | 41 | 351 | 5.2 | 7.0 | 0.00 | 0.00 | 0.00 | 65 | 1002.9 |
| 20260506071640 | 41 | 336 | 5.2 | 5.2 | 0.00 | 0.00 | 0.00 | 64 | 1002.7 |
| 20260506071137 | 41 | 344 | 7.0 | 9.6 | 0.00 | 0.00 | 0.00 | 64 | 1002.8 |
| 20260506070634 | 41 | 330 | 8.7 | 13.0 | 0.00 | 0.00 | 0.00 | 64 | 1002.8 |
| 20260506070131 | 41 | 326 | 7.8 | 11.3 | 0.00 | 0.00 | 0.00 | 63 | 1002.9 |